When you browse on this site, cookies collect data to enhance your experience and personalize the content and advertising you see.
Visit our Privacy Policy to learn more. By continuing to use the site, you agree to this use of cookies and data.
  • In Hungary
  • List of Countries
  • For 7 days
  • Water Temperature
  • Satellite Maps
  • Weather Map
  • News
  • Weather Widgets
  • user-avatar
    Login

    Hourly Weather Urbandale

    Today, 18 June, Tuesday

    Time Temperature Precipitation Wind Pressure Humidity
    00:00 +17°C° 0 mm 2 mps 737 mmHg 94%
    01:00 +18°C° 0 mm 1 mps 737 mmHg 94%
    02:00 +18°C° 0 mm 1 mps 737 mmHg 94%
    03:00 +16°C° 0 mm 0 mps 737 mmHg 95%
    04:00 +18°C° 0 mm 1 mps 737 mmHg 94%
    05:00 +18°C° 0 mm 1 mps 737 mmHg 94%
    06:00 +19°C° 0 mm 1 mps 737 mmHg 94%
    07:00 +20°C° 0 mm 1 mps 737 mmHg 91%
    08:00 +20°C° 0 mm 1 mps 737 mmHg 89%
    09:00 +19°C° 0 mm 0 mps 737 mmHg 86%
    10:00 +20°C° 0 mm 0 mps 737 mmHg 82%
    11:00 +23°C° 0 mm 1 mps 737 mmHg 77%
    12:00 +24°C° 0 mm 1 mps 737 mmHg 72%
    13:00 +25°C° 0.1 mm 1 mps 737 mmHg 71%
    14:00 +25°C° 0.1 mm 1 mps 736 mmHg 69%
    15:00 +26°C° 0.1 mm 1 mps 736 mmHg 68%
    16:00 +25°C° 0.6 mm 1 mps 736 mmHg 74%
    17:00 +24°C° 0.6 mm 2 mps 735 mmHg 81%
    18:00 +23°C° 0.6 mm 2 mps 735 mmHg 88%
    19:00 +21°C° 2.4 mm 2 mps 735 mmHg 91%
    20:00 +20°C° 2.4 mm 2 mps 735 mmHg 94%
    21:00 +19°C° 2.4 mm 3 mps 735 mmHg 97%
    22:00 +18°C° 1.2 mm 3 mps 735 mmHg 97%
    23:00 +18°C° 1.2 mm 2 mps 735 mmHg 98%

    Tomorrow, 19 June, Wednesday

    Time Temperature Precipitation Wind Pressure Humidity
    00:00 +18°C° 1.2 mm 2 mps 734 mmHg 98%
    01:00 +18°C° 1.4 mm 2 mps 734 mmHg 98%
    02:00 +18°C° 1.4 mm 2 mps 734 mmHg 98%
    03:00 +18°C° 1.4 mm 2 mps 734 mmHg 98%
    04:00 +18°C° 0.5 mm 3 mps 734 mmHg 97%
    05:00 +17°C° 0.5 mm 3 mps 734 mmHg 96%
    06:00 +17°C° 0.5 mm 3 mps 733 mmHg 96%
    07:00 +17°C° 0.1 mm 3 mps 734 mmHg 95%
    08:00 +17°C° 0.1 mm 3 mps 734 mmHg 94%
    09:00 +18°C° 0.1 mm 3 mps 734 mmHg 93%
    10:00 +19°C° 0 mm 3 mps 733 mmHg 89%
    11:00 +20°C° 0 mm 4 mps 733 mmHg 85%
    12:00 +21°C° 0 mm 4 mps 733 mmHg 81%
    13:00 +21°C° 0 mm 4 mps 732 mmHg 80%
    14:00 +21°C° 0 mm 3 mps 732 mmHg 80%
    15:00 +22°C° 0 mm 3 mps 731 mmHg 79%
    16:00 +22°C° 0 mm 3 mps 731 mmHg 80%
    17:00 +21°C° 0 mm 3 mps 731 mmHg 81%
    18:00 +21°C° 0 mm 3 mps 730 mmHg 82%
    19:00 +20°C° 0 mm 3 mps 731 mmHg 86%
    20:00 +18°C° 0 mm 2 mps 731 mmHg 90%
    21:00 +17°C° 0 mm 2 mps 731 mmHg 94%
    22:00 +17°C° 0 mm 2 mps 731 mmHg 95%
    23:00 +16°C° 0 mm 1 mps 731 mmHg 95%

    Day after tomorrow, 20 June, Thursday

    Time Temperature Precipitation Wind Pressure Humidity
    00:00 +16°C° 0 mm 1 mps 730 mmHg 96%
    01:00 +15°C° 0 mm 1 mps 731 mmHg 96%
    02:00 +15°C° 0 mm 1 mps 731 mmHg 96%
    03:00 +15°C° 0 mm 1 mps 731 mmHg 96%
    04:00 +14°C° 0 mm 0 mps 731 mmHg 95%
    05:00 +15°C° 0 mm 0 mps 731 mmHg 95%
    06:00 +15°C° 0 mm 0 mps 731 mmHg 94%
    07:00 +19°C° 0 mm 1 mps 732 mmHg 91%
    08:00 +20°C° 0 mm 1 mps 732 mmHg 87%
    09:00 +21°C° 0 mm 2 mps 732 mmHg 83%
    10:00 +23°C° 0 mm 2 mps 732 mmHg 81%
    11:00 +23°C° 0 mm 2 mps 732 mmHg 78%
    12:00 +24°C° 0 mm 2 mps 732 mmHg 75%
    13:00 +25°C° 0 mm 2 mps 732 mmHg 75%
    14:00 +25°C° 0 mm 2 mps 732 mmHg 75%
    15:00 +26°C° 0 mm 3 mps 732 mmHg 74%
    16:00 +25°C° 0.1 mm 3 mps 732 mmHg 78%
    17:00 +25°C° 0.1 mm 3 mps 732 mmHg 82%
    18:00 +25°C° 0.1 mm 3 mps 732 mmHg 85%
    19:00 +24°C° 0.1 mm 3 mps 732 mmHg 89%
    20:00 +22°C° 0.1 mm 3 mps 732 mmHg 92%
    21:00 +20°C° 0.1 mm 4 mps 733 mmHg 95%
    22:00 +20°C° 0 mm 3 mps 733 mmHg 95%
    23:00 +20°C° 0 mm 3 mps 733 mmHg 96%

    21 June, Friday

    Time Temperature Precipitation Wind Pressure Humidity
    00:00 +20°C° 0 mm 3 mps 733 mmHg 96%
    01:00 +20°C° 0 mm 4 mps 733 mmHg 96%
    02:00 +20°C° 0 mm 4 mps 733 mmHg 96%
    03:00 +20°C° 0 mm 4 mps 733 mmHg 96%
    04:00 +20°C° 0.4 mm 4 mps 733 mmHg 96%
    05:00 +20°C° 0.4 mm 4 mps 733 mmHg 95%
    06:00 +20°C° 0.4 mm 4 mps 734 mmHg 95%
    07:00 +20°C° 3.1 mm 4 mps 733 mmHg 96%
    08:00 +20°C° 3.1 mm 5 mps 733 mmHg 96%
    09:00 +20°C° 3.1 mm 6 mps 733 mmHg 96%
    10:00 +21°C° 0.5 mm 6 mps 733 mmHg 94%
    11:00 +22°C° 0.5 mm 7 mps 733 mmHg 91%
    12:00 +23°C° 0.5 mm 8 mps 733 mmHg 89%
    13:00 +23°C° 0 mm 7 mps 733 mmHg 90%
    14:00 +24°C° 0 mm 6 mps 732 mmHg 91%
    15:00 +24°C° 0 mm 6 mps 732 mmHg 92%
    16:00 +24°C° 0.1 mm 6 mps 732 mmHg 93%
    17:00 +24°C° 0.1 mm 6 mps 732 mmHg 93%
    18:00 +24°C° 0.1 mm 6 mps 731 mmHg 94%
    19:00 +24°C° 0.1 mm 6 mps 732 mmHg 95%
    20:00 +24°C° 0.1 mm 6 mps 732 mmHg 96%
    21:00 +25°C° 0.1 mm 5 mps 732 mmHg 97%
    22:00 +25°C° 0.6 mm 5 mps 732 mmHg 98%
    23:00 +25°C° 0.6 mm 5 mps 732 mmHg 98%

    22 June, Saturday

    Time Temperature Precipitation Wind Pressure Humidity
    00:00 +25°C° 0.6 mm 4 mps 732 mmHg 98%
    01:00 +25°C° 1.5 mm 4 mps 731 mmHg 97%
    02:00 +25°C° 1.5 mm 4 mps 731 mmHg 96%
    03:00 +25°C° 1.5 mm 3 mps 731 mmHg 96%
    04:00 +25°C° 0 mm 3 mps 731 mmHg 94%
    05:00 +25°C° 0 mm 3 mps 731 mmHg 93%
    06:00 +25°C° 0 mm 3 mps 731 mmHg 92%
    07:00 +26°C° 0 mm 4 mps 731 mmHg 87%
    08:00 +26°C° 0 mm 4 mps 732 mmHg 83%
    09:00 +27°C° 0 mm 5 mps 732 mmHg 79%
    10:00 +28°C° 0 mm 6 mps 732 mmHg 77%
    11:00 +29°C° 0 mm 6 mps 732 mmHg 75%
    12:00 +30°C° 0 mm 7 mps 733 mmHg 72%
    13:00 +30°C° 0 mm 7 mps 733 mmHg 72%
    14:00 +30°C° 0 mm 7 mps 733 mmHg 72%
    15:00 +32°C° 0 mm 6 mps 733 mmHg 71%
    16:00 +30°C° 0.1 mm 5 mps 733 mmHg 75%
    17:00 +29°C° 0.1 mm 5 mps 733 mmHg 79%
    18:00 +28°C° 0.1 mm 4 mps 733 mmHg 83%
    19:00 +26°C° 0 mm 3 mps 733 mmHg 87%
    20:00 +25°C° 0 mm 3 mps 733 mmHg 91%
    21:00 +22°C° 0 mm 3 mps 734 mmHg 94%
    22:00 +21°C° 0.1 mm 2 mps 734 mmHg 95%
    23:00 +20°C° 0.1 mm 2 mps 734 mmHg 95%

    23 June, Sunday

    Time Temperature Precipitation Wind Pressure Humidity
    00:00 +19°C° 0.1 mm 2 mps 734 mmHg 95%
    01:00 +19°C° 0.5 mm 2 mps 734 mmHg 95%
    02:00 +19°C° 0.5 mm 2 mps 734 mmHg 94%
    03:00 +19°C° 0.5 mm 1 mps 734 mmHg 94%
    04:00 +19°C° 0.6 mm 1 mps 734 mmHg 94%
    05:00 +20°C° 0.6 mm 1 mps 734 mmHg 94%
    06:00 +20°C° 0.6 mm 1 mps 733 mmHg 94%
    07:00 +21°C° 0.4 mm 1 mps 733 mmHg 92%
    08:00 +22°C° 0.4 mm 1 mps 733 mmHg 91%
    09:00 +23°C° 0.4 mm 1 mps 733 mmHg 89%
    10:00 +24°C° 0.1 mm 1 mps 733 mmHg 88%
    11:00 +24°C° 0.1 mm 1 mps 733 mmHg 88%
    12:00 +24°C° 0.1 mm 1 mps 733 mmHg 87%
    13:00 +25°C° 0.1 mm 1 mps 733 mmHg 84%
    14:00 +26°C° 0.1 mm 2 mps 732 mmHg 81%
    15:00 +27°C° 0.1 mm 2 mps 732 mmHg 77%
    16:00 +27°C° 0 mm 2 mps 732 mmHg 79%
    17:00 +27°C° 0 mm 2 mps 731 mmHg 81%
    18:00 +26°C° 0 mm 2 mps 731 mmHg 83%
    19:00 +25°C° 0.4 mm 2 mps 731 mmHg 86%
    20:00 +23°C° 0.4 mm 2 mps 731 mmHg 89%
    21:00 +21°C° 0.4 mm 3 mps 731 mmHg 93%
    22:00 +20°C° 0.1 mm 2 mps 731 mmHg 92%
    23:00 +21°C° 0.1 mm 1 mps 731 mmHg 92%
    Show more